STARLINK-31035, 58532

Orbit data source: Space-Track

STARLINK-31035, 58532 is a payload satellite owned by SpaceX/Seattle (US) in LEO that was launched on Fri, 08 Dec 2023 UTC via an FALCON 9 launch vehicle from the Air Force Western Test Range (AFWTR). Payload-class satellites include a variety of spacecraft equipped with specific instruments for various scientific and technological missions. These include communications satellites like Starlink; space stations such as the ISS; scientific satellites like the Hubble; Earth observation satellites from companies like Planet Labs, Umbra, and HawkEye 360; GPS; miniature CubeSats for education and research; and military/defense satellites.

Loading next visibility...
Identifier
58532, 2023-192B
Orbit
LEO
Country
Flag of USUS
Related business
Manufacturer
SpaceX/Seattle
Mission
Operational Commercial Communications
Bus & Motor
STARLINK V2M, Unknown motor
Mass
730 kg wet, ~700 kg dry
Launch date (UTC)
2023-12-08 (3 years ago)
Launch vehicle
FALCON 9
Launch site
Air Force Western Test Range (AFWTR)
Object type
Payload
Rocket body
Debris
Shape & HBR
Box + 2 Pan, 17.7 m
Radar Cross Section
33.884 m², Large (>1 m²)

Expand to show TLE details & history
Last TLE update: 2 days ago

TLE from 2 days ago
0 STARLINK-31035
1 58532U 23192B   26171.33343765  .00008543  00000-0  26375-3 0  9997
2 58532  53.1603 292.2433 0001282  81.4931 278.6217 15.34391726141894
Epoch: 2026-06-20T08:00Z
TLE epoch observation values (Epoch: 2026-06-20T08:00:09.012Z)
Latitude
-0.00003°
Longitude
-96.34384°
Altitude
463.498 km
Speed
7.636 km/s
True Right ascension
19h 28m 58s
True Declination
0° 00' 00"
Sunlit
Object was in full shadow at epoch
Visualization orbit readout
Latitude
Unknown
Longitude
Unknown
Altitude
Unknown
Speed
Unknown
Apparent Right ascension
Unknown
Apparent Declination
Unknown
Sunlit
N/A
Visualization observer readout
Local Sidereal Time
21:29:44
Azimuth
Unknown
Elevation
Unknown
Doppler factor
Unknown
Orbital elements
Apogee altitude
463.862 km
Perigee altitude
462.108 km
Semi-major axis
6,841.122 km
Eccentricity
0.00013
Inclination
53.1603°
RAAN
292.2433°
Arg. of periapsis
81.4931°
True anomaly
278.60718°
Mean anomaly
278.6217°
Eccentric anomaly
278.61444°
Mean motion
3.83577 °/min
Orbital period
93.85 mins
BSTAR
0.00026375
Loading maneuver chart data...
Computing Atmospheric mass density...
Loading historical data...
Loading historical data...
Loading historical data...
Loading historical data...
Loading historical data...
Loading historical data...
Loading historical data...

Documentation

Showing up to 5 results
|